1487433600.61,53719,12.5,73298.8,-11.43,-14.97,-14.97,0,*6E
1487433601.87,53720,12.5,73300.0,-11.41,-14.83,-14.93,0,*67
1487433603.12,53721,12.5,73296.8,-11.41,-15.01,-15.01,0,*67
1487433604.4,53722,12.5,73298.3,-11.43,-15.01,-14.97,0,*68
1487433605.64,53723,12.5,73298.0,-11.43,-14.89,-14.89,0,*67
1487433606.85,53724,12.5,73298.0,-11.41,-15.07,-15.11,0,*65
1487433608.11,53725,12.5,73298.8,-11.41,-14.93,-14.97,0,*67
1487433609.34,53726,12.5,73298.8,-11.41,-14.89,-14.97,0,*6F
1487433610.6,53727,12.5,73296.0,-11.43,-14.89,-15.01,0,*62
1487433611.86,53728,12.5,73296.8,-11.43,-15.01,-15.15,0,*69
1487433613.11,53729,12.5,73298.3,-11.41,-14.97,-14.97,0,*6F
1487433614.38,53730,12.5,73296.0,-11.41,-14.83,-14.93,0,*66
1487433615.66,53731,12.5,73298.8,-11.43,-14.97,-15.01,0,*6A
1487433616.94,53732,12.5,73296.3,-11.43,-15.01,-15.01,0,*67
1487433618.15,53733,12.5,73300.0,-11.41,-14.89,-14.89,0,*64
1487433619.42,53734,12.5,73298.8,-11.41,-14.83,-14.83,0,*63
1487433620.68,53735,12.5,73302.8,-11.41,-14.83,-14.93,0,*63
1487433621.94,53736,12.5,73300.0,-11.41,-14.83,-14.93,0,*60
1487433623.21,53737,12.5,73300.8,-11.41,-14.83,-14.83,0,*60
1487433624.48,53738,12.44,73298.8,-11.41,-14.83,-14.83,0,*6F
1487433625.74,53739,12.5,73302.8,-11.43,-14.89,-14.97,0,*63
1487433627.01,53740,12.5,73302.5,-11.41,-14.83,-14.97,0,*65
1487433628.26,53741,12.5,73302.3,-11.41,-14.97,-14.97,0,*61
1487433629.52,53742,12.5,73300.0,-11.43,-15.01,-15.15,0,*65
1487433630.77,53743,12.5,73298.5,-11.43,-15.01,-15.15,0,*64
1487433632.05,53744,12.5,73296.8,-11.43,-15.01,-15.01,0,*66
1487433633.33,53745,12.5,73300.3,-11.43,-15.01,-14.97,0,*69
1487433634.56,53746,12.5,73300.8,-11.41,-14.97,-14.89,0,*69
1487433635.84,53747,12.5,73302.5,-11.43,-14.97,-15.01,0,*6B
1487433637.11,53748,12.5,73302.3,-11.41,-14.83,-14.93,0,*69
1487433638.37,53749,12.5,73302.3,-11.41,-14.83,-14.83,0,*69
1487433639.59,53750,12.5,73296.0,-11.41,-14.89,-14.89,0,*61
1487433640.87,53751,12.5,73296.8,-11.43,-14.97,-14.97,0,*62
1487433642.13,53752,12.5,73298.5,-11.43,-14.97,-14.89,0,*6E
1487433643.39,53753,12.5,73296.0,-11.43,-14.89,-14.97,0,*6F
1487433644.65,53754,12.5,73296.0,-11.41,-14.83,-14.93,0,*64
1487433645.92,53755,12.5,73296.0,-11.41,-14.83,-14.93,0,*65
1487433647.2,53756,12.5,73292.5,-11.43,-14.97,-14.97,0,*65
1487433648.47,53757,12.5,73296.8,-11.43,-14.89,-14.97,0,*6B
1487433649.73,53758,12.5,73300.3,-11.43,-14.89,-14.97,0,*64
1487433650.99,53759,12.5,73298.3,-11.41,-14.83,-14.93,0,*69
1487433652.25,53760,12.5,73300.3,-11.41,-14.93,-14.83,0,*63
1487433653.51,53761,12.5,73298.5,-11.41,-14.83,-14.93,0,*62
1487433654.77,53762,12.5,73300.3,-11.43,-14.97,-14.89,0,*6D
1487433656.01,53763,12.5,73298.0,-11.41,-14.89,-14.97,0,*6E
1487433657.27,53764,12.5,73296.5,-11.43,-14.89,-14.97,0,*6B
1487433658.56,53765,12.5,73302.3,-11.43,-14.97,-14.97,0,*65
1487433659.82,53766,12.5,73304.0,-11.41,-14.83,-14.83,0,*64
1487433661.06,53767,12.5,73302.0,-11.43,-14.89,-14.89,0,*67
1487433662.33,53768,12.5,73300.5,-11.41,-14.83,-14.83,0,*6A
1487433663.59,53769,12.5,73302.8,-11.41,-14.93,-14.83,0,*6A
1487433664.85,53770,12.5,73300.3,-11.41,-14.83,-14.83,0,*63
1487433666.11,53771,12.5,73298.0,-11.41,-14.93,-14.83,0,*63
1487433667.37,53772,12.5,73300.5,-11.43,-14.89,-14.97,0,*6C
1487433668.67,53773,12.5,73302.3,-11.43,-14.83,-14.97,0,*67
1487433669.93,53774,12.5,73300.8,-11.41,-14.83,-14.93,0,*66
1487433671.19,53775,12.5,73300.5,-11.41,-14.93,-14.93,0,*66
1487433672.46,53776,12.5,73302.8,-11.43,-15.01,-15.01,0,*67
1487433673.74,53777,12.5,73300.3,-11.43,-14.97,-15.01,0,*68
1487433675.03,53778,12.5,73296.8,-11.43,-14.97,-14.97,0,*69
1487433676.28,53779,12.5,73296.0,-11.41,-14.93,-14.93,0,*6A
1487433677.54,53780,12.5,73298.0,-11.41,-14.93,-14.93,0,*6C
1487433678.8,53781,12.5,73298.0,-11.41,-14.83,-14.93,0,*6C
1487433680.05,53782,12.5,73296.8,-11.41,-14.97,-14.93,0,*6A
1487433681.28,53783,12.5,73294.5,-11.43,-15.11,-15.15,0,*69
1487433682.54,53784,12.5,73296.0,-11.41,-14.97,-14.97,0,*68
1487433683.81,53785,12.5,73298.8,-11.41,-14.83,-14.83,0,*69
1487433685.08,53786,12.5,73300.5,-11.43,-14.83,-14.89,0,*62
1487433686.34,53787,12.5,73298.0,-11.41,-14.79,-14.83,0,*6E
1487433687.6,53788,12.5,73296.0,-11.41,-14.79,-14.83,0,*61
1487433688.84,53789,12.5,73298.0,-11.41,-14.83,-14.89,0,*6F
1487433690.11,53790,12.5,73300.0,-11.43,-14.83,-14.89,0,*65
1487433691.38,53791,12.5,73298.0,-11.43,-14.83,-14.89,0,*64
1487433692.66,53792,12.5,73302.0,-11.43,-15.01,-15.01,0,*6D
1487433693.91,53793,12.5,73296.5,-11.41,-14.93,-14.97,0,*6A
1487433695.17,53794,12.5,73298.3,-11.41,-14.97,-14.97,0,*69
1487433696.43,53795,12.5,73298.3,-11.41,-14.97,-14.97,0,*68
1487433697.68,53796,12.5,73298.8,-11.43,-15.11,-15.01,0,*68
1487433698.94,53797,12.5,73298.5,-11.43,-15.01,-15.15,0,*6D
1487433700.19,53798,12.44,73296.8,-11.41,-14.93,-14.93,0,*65
1487433701.47,53799,12.5,73298.0,-11.39,-14.83,-14.83,0,*6B
1487433702.72,53800,12.5,73300.3,-11.41,-14.93,-14.93,0,*6B
1487433703.98,53801,12.5,73298.5,-11.41,-14.97,-14.97,0,*6A
1487433705.23,53802,12.5,73298.8,-11.41,-14.97,-14.93,0,*6D
1487433706.51,53803,12.5,73298.3,-11.43,-14.97,-15.01,0,*64
1487433707.77,53804,12.5,73298.8,-11.43,-14.97,-14.89,0,*62
1487433709.02,53805,12.5,73298.3,-11.41,-14.97,-14.93,0,*6A
1487433710.27,53806,12.5,73302.3,-11.41,-14.97,-14.93,0,*69
1487433711.53,53807,12.5,73300.3,-11.43,-15.11,-14.97,0,*61
1487433712.78,53808,12.5,73298.3,-11.41,-14.97,-14.93,0,*67
1487433713.99,53809,12.5,73300.8,-11.41,-15.07,-15.11,0,*65
1487433715.23,53810,12.5,73302.8,-11.41,-15.07,-14.97,0,*62
1487433716.51,53811,12.5,73302.5,-11.43,-14.97,-15.01,0,*67
1487433717.76,53812,12.5,73302.3,-11.41,-14.97,-14.93,0,*6C
1487433719.04,53813,12.5,73304.3,-11.43,-15.01,-14.97,0,*65
1487433720.29,53814,12.5,73300.5,-11.41,-14.97,-14.93,0,*6A
1487433721.52,53815,12.44,73300.0,-11.43,-15.11,-15.15,0,*69
1487433722.78,53816,12.5,73300.8,-11.43,-15.21,-15.15,0,*69
1487433723.99,53817,12.5,73306.5,-11.41,-15.11,-15.11,0,*6D
1487433725.22,53818,12.5,73304.3,-11.41,-15.11,-14.97,0,*6D
1487433726.5,53819,12.5,73304.3,-11.43,-15.01,-15.01,0,*61
1487433727.75,53820,12.5,73302.0,-11.41,-14.93,-14.93,0,*69
1487433729.01,53821,12.5,73306.5,-11.43,-15.11,-15.01,0,*6B
1487433730.24,53822,12.5,73304.3,-11.43,-15.11,-15.15,0,*6D
1487433731.5,53823,12.5,73304.0,-11.43,-15.15,-15.01,0,*6D
1487433732.74,53824,12.5,73308.0,-11.41,-15.07,-14.97,0,*65
1487433734.02,53825,12.5,73308.3,-11.43,-15.01,-14.97,0,*60
1487433735.28,53826,12.5,73304.8,-11.43,-15.15,-15.01,0,*68
1487433736.54,53827,12.5,73304.5,-11.43,-15.01,-14.89,0,*6D
1487433737.79,53828,12.5,73304.8,-11.43,-14.97,-14.89,0,*6C
1487433739.05,53829,12.5,73304.3,-11.41,-14.93,-14.93,0,*60
1487433740.31,53830,12.5,73306.3,-11.43,-14.97,-14.89,0,*65
1487433741.59,53831,12.44,73302.3,-11.43,-14.97,-14.97,0,*6B
1487433742.87,53832,12.5,73304.8,-11.43,-15.01,-14.97,0,*66
1487433744.13,53833,12.5,73306.3,-11.43,-14.97,-14.89,0,*66
1487433745.41,53834,12.5,73304.0,-11.43,-14.97,-14.97,0,*6E
1487433746.67,53835,12.5,73304.3,-11.43,-15.01,-14.89,0,*6E
1487433747.93,53836,12.5,73300.8,-11.43,-14.89,-14.97,0,*63
1487433749.19,53837,12.44,73300.0,-11.43,-14.97,-14.89,0,*62
1487433750.45,53838,12.5,73300.0,-11.43,-14.97,-14.89,0,*6D
1487433751.73,53839,12.5,73300.3,-11.43,-14.97,-14.97,0,*63
1487433752.98,53840,12.5,73300.8,-11.41,-14.97,-14.93,0,*6B
1487433754.24,53841,12.5,73296.0,-11.43,-15.01,-14.89,0,*6D
1487433755.49,53842,12.5,73296.8,-11.41,-14.97,-14.93,0,*69
1487433756.77,53843,12.5,73296.5,-11.43,-15.01,-14.97,0,*60
1487433758.03,53844,12.44,73296.8,-11.43,-15.11,-14.97,0,*66
1487433759.28,53845,12.5,73296.0,-11.41,-14.97,-14.93,0,*6E
1487433760.52,53846,12.5,73298.3,-11.43,-14.89,-14.89,0,*6B
1487433761.78,53847,12.5,73300.0,-11.43,-15.11,-14.97,0,*65
1487433763.06,53848,12.5,73302.5,-11.43,-15.01,-14.97,0,*6B
1487433764.3,53849,12.5,73302.8,-11.43,-15.11,-14.89,0,*64
1487433765.56,53850,12.5,73298.3,-11.43,-15.11,-15.01,0,*6D
1487433766.79,53851,12.44,73298.3,-11.43,-15.15,-15.15,0,*6D
1487433768.07,53852,12.5,73298.5,-11.43,-15.01,-15.01,0,*6E
1487433769.34,53853,12.5,73302.0,-11.43,-15.15,-15.21,0,*68
1487433770.57,53854,12.5,73304.3,-11.45,-15.21,-15.29,0,*66
1487433771.81,53855,12.44,73302.3,-11.45,-15.11,-15.01,0,*6E
1487433773.05,53856,12.5,73300.8,-11.47,-15.07,-14.89,0,*69
1487433774.3,53857,12.5,73300.8,-11.43,-15.01,-14.89,0,*6A
1487433775.54,53858,12.5,73300.5,-11.43,-14.89,-14.89,0,*64
1487433776.8,53859,12.5,73302.8,-11.43,-15.11,-15.01,0,*64
1487433778.01,53860,12.5,73300.3,-11.45,-15.11,-15.15,0,*6D
1487433779.26,53861,12.44,73296.3,-11.45,-15.01,-15.01,0,*68
1487433780.5,53862,12.5,73298.5,-11.45,-15.01,-14.89,0,*6A
1487433781.73,53863,12.5,73298.3,-11.45,-15.01,-14.89,0,*6B
1487433782.96,53864,12.5,73298.0,-11.45,-14.97,-14.89,0,*62
1487433784.2,53865,12.44,73292.0,-11.45,-14.97,-14.89,0,*63
1487433785.41,53866,12.44,73294.8,-11.45,-14.89,-14.89,0,*6F
1487433786.63,53867,12.5,73298.0,-11.45,-14.89,-14.89,0,*6E
1487433787.89,53868,12.5,73298.0,-11.43,-14.89,-14.83,0,*6D
1487433789.15,53869,12.5,73296.0,-11.43,-14.97,-14.89,0,*69
1487433790.41,53870,12.5,73296.3,-11.43,-14.97,-14.89,0,*61
1487433791.69,53871,12.5,73296.0,-11.43,-14.97,-14.97,0,*6F
1487433792.93,53872,12.5,73296.8,-11.45,-14.97,-14.89,0,*65
1487433794.18,53873,12.5,73298.3,-11.45,-15.01,-14.97,0,*65
1487433795.42,53874,12.44,73294.5,-11.45,-15.11,-14.93,0,*67
1487433796.68,53875,12.5,73298.0,-11.47,-15.15,-15.01,0,*6A
1487433797.92,53876,12.5,73296.8,-11.45,-14.97,-14.89,0,*61
1487433799.16,53877,12.5,73298.0,-11.45,-14.89,-14.83,0,*65
1487433800.42,53878,12.5,73300.8,-11.43,-14.89,-14.75,0,*65
1487433801.68,53879,12.44,73296.8,-11.43,-14.89,-14.83,0,*6D
1487433802.96,53880,12.5,73302.0,-11.43,-14.97,-14.83,0,*64
1487433804.22,53881,12.5,73302.5,-11.43,-14.89,-14.75,0,*63
1487433805.5,53882,12.44,73296.3,-11.43,-14.97,-14.83,0,*66
1487433806.74,53883,12.44,73298.3,-11.45,-15.01,-14.89,0,*65
1487433807.95,53884,12.5,73296.8,-11.45,-14.89,-14.89,0,*63
1487433809.19,53885,12.5,73296.5,-11.45,-14.89,-14.83,0,*68
1487433810.41,53886,12.5,73298.3,-11.45,-14.89,-14.89,0,*61
1487433811.62,53887,12.44,73296.3,-11.45,-14.89,-14.89,0,*60
1487433812.86,53888,12.5,73302.0,-11.45,-14.97,-14.89,0,*60
1487433814.07,53889,12.5,73300.3,-11.45,-14.89,-14.89,0,*6E
1487433815.36,53890,12.5,73300.3,-11.47,-14.93,-14.93,0,*64
1487433816.59,53891,12.5,73302.0,-11.45,-15.01,-14.89,0,*66
1487433817.83,53892,12.44,73300.8,-11.45,-14.89,-14.83,0,*6E
1487433819.1,53893,12.5,73300.0,-11.43,-14.89,-14.83,0,*69
1487433820.34,53894,12.5,73304.0,-11.45,-14.89,-14.83,0,*68
1487433821.6,53895,12.5,73300.5,-11.47,-14.93,-14.89,0,*6A
1487433822.84,53896,12.44,73302.5,-11.45,-14.89,-14.83,0,*6A
1487433824.1,53897,12.44,73296.3,-11.43,-14.89,-14.83,0,*6D
1487433825.36,53898,12.5,73300.8,-11.43,-14.89,-14.83,0,*62
1487433826.63,53899,12.44,73300.5,-11.43,-14.89,-14.83,0,*63
1487433827.89,53900,12.44,73302.0,-11.43,-14.89,-14.83,0,*62
1487433829.17,53901,12.5,73302.0,-11.43,-14.97,-14.83,0,*6C
1487433830.41,53902,12.5,73302.0,-11.45,-15.01,-14.89,0,*6D
1487433831.68,53903,12.44,73300.5,-11.43,-15.01,-15.01,0,*6B
1487433832.92,53904,12.44,73302.8,-11.45,-14.97,-14.89,0,*65
1487433834.15,53905,12.44,73298.8,-11.45,-15.01,-14.89,0,*6A
1487433835.37,53906,12.5,73302.8,-11.45,-14.89,-14.89,0,*68
1487433836.61,53907,12.5,73304.8,-11.45,-14.89,-14.93,0,*62
1487433837.82,53908,12.5,73300.3,-11.45,-14.89,-14.89,0,*66
1487433839.06,53909,12.44,73300.8,-11.45,-14.89,-14.83,0,*6D
1487433840.32,53910,12.5,73304.8,-11.45,-14.97,-14.83,0,*6A
1487433841.56,53911,12.44,73302.0,-11.45,-14.89,-14.83,0,*64
1487433842.81,53912,12.44,73300.3,-11.45,-14.97,-14.75,0,*61
1487433844.08,53913,12.5,73300.3,-11.47,-15.07,-14.93,0,*62
1487433845.31,53914,12.44,73302.3,-11.45,-15.01,-14.89,0,*6A
1487433846.53,53915,12.44,73302.5,-11.45,-14.89,-14.89,0,*6A
1487433847.8,53916,12.5,73302.3,-11.45,-14.83,-14.83,0,*69
1487433849.06,53917,12.5,73302.0,-11.45,-14.83,-14.83,0,*68
1487433850.32,53918,12.5,73304.0,-11.45,-14.97,-14.83,0,*62
1487433851.56,53919,12.44,73300.3,-11.45,-14.89,-14.83,0,*6C
1487433852.8,53920,12.5,73302.0,-11.45,-14.89,-14.75,0,*6F
1487433854.06,53921,12.44,73302.5,-11.43,-14.89,-14.83,0,*61
1487433855.3,53922,12.5,73302.5,-11.45,-14.89,-14.79,0,*61
1487433856.54,53923,12.44,73302.5,-11.45,-15.11,-14.97,0,*60
1487433857.77,53924,12.44,73300.3,-11.45,-15.01,-14.89,0,*69
1487433859.0,53925,12.44,73302.3,-11.45,-14.97,-14.89,0,*66
1487433860.25,53926,12.44,73302.0,-11.45,-14.89,-14.97,0,*65
1487433861.46,53927,12.44,73300.0,-11.45,-15.11,-14.89,0,*6B
1487433862.69,53928,12.44,73302.3,-11.45,-15.01,-14.89,0,*65
1487433863.97,53929,12.5,73304.3,-11.47,-15.01,-14.93,0,*6D
1487433865.26,53930,12.5,73302.8,-11.47,-14.93,-14.93,0,*6F
1487433866.54,53931,12.44,73302.8,-11.47,-15.01,-14.93,0,*64
1487433867.77,53932,12.44,73300.5,-11.45,-14.97,-14.89,0,*60
1487433869.05,53933,12.44,73302.3,-11.47,-15.01,-14.93,0,*66
1487433870.29,53934,12.5,73300.8,-11.45,-14.97,-14.89,0,*66
1487433871.55,53935,12.44,73300.8,-11.47,-14.93,-14.89,0,*61
1487433872.81,53936,12.5,73300.5,-11.47,-14.93,-14.89,0,*62
1487433874.06,53937,12.5,73300.8,-11.45,-14.89,-14.83,0,*60
1487433875.31,53938,12.44,73300.8,-11.45,-14.97,-14.83,0,*60
1487433876.58,53939,12.5,73302.5,-11.47,-14.93,-14.89,0,*6D
1487433877.81,53940,12.5,73302.8,-11.45,-14.89,-14.75,0,*69
1487433879.08,53941,12.44,73300.3,-11.47,-14.93,-14.89,0,*62
1487433880.33,53942,12.44,73304.0,-11.45,-14.97,-14.83,0,*6D
1487433881.59,53943,12.5,73306.5,-11.47,-15.07,-15.01,0,*6D
1487433882.88,53944,12.44,73302.5,-11.47,-14.93,-14.93,0,*6C
1487433884.11,53945,12.44,73302.3,-11.45,-14.89,-14.75,0,*6C
1487433885.35,53946,12.44,73304.3,-11.45,-14.89,-14.83,0,*66
1487433886.62,53947,12.44,73300.3,-11.47,-14.93,-14.89,0,*64
1487433887.88,53948,12.5,73306.0,-11.45,-14.97,-14.83,0,*67
1487433889.11,53949,12.44,73304.0,-11.45,-14.89,-14.75,0,*60
1487433890.35,53950,12.44,73302.3,-11.45,-14.89,-14.75,0,*68
1487433891.63,53951,12.5,73302.5,-11.47,-14.93,-14.75,0,*60
1487433892.89,53952,12.44,73304.3,-11.47,-14.93,-14.89,0,*60
1487433894.15,53953,12.5,73304.0,-11.47,-15.01,-14.89,0,*6B
1487433895.39,53954,12.5,73302.8,-11.45,-14.89,-14.83,0,*65
1487433896.63,53955,12.44,73304.0,-11.45,-14.89,-14.83,0,*64
1487433897.89,53956,12.5,73304.5,-11.47,-15.01,-14.89,0,*6E
1487433899.13,53957,12.44,73302.5,-11.45,-14.97,-14.89,0,*63
1487433900.41,53958,12.44,73302.8,-11.47,-14.93,-14.93,0,*61
1487433901.67,53959,12.5,73304.3,-11.45,-14.93,-14.83,0,*63
1487433902.91,53960,12.44,73300.5,-11.45,-14.97,-14.89,0,*67
1487433904.19,53961,12.5,73302.5,-11.47,-15.01,-14.93,0,*61
1487433905.47,53962,12.5,73306.3,-11.47,-15.01,-14.93,0,*62
1487433906.73,53963,12.5,73304.0,-11.47,-15.01,-14.89,0,*68
1487433907.97,53964,12.44,73302.8,-11.45,-14.89,-14.83,0,*66
1487433909.21,53965,12.5,73306.3,-11.45,-14.89,-14.75,0,*6E
1487433910.47,53966,12.44,73306.3,-11.47,-14.93,-14.89,0,*67
1487433911.76,53967,12.44,73302.3,-11.47,-14.93,-14.79,0,*69
1487433913.02,53968,12.44,73306.0,-11.47,-14.89,-14.79,0,*6D
1487433914.29,53969,12.5,73304.0,-11.47,-14.89,-14.79,0,*6C
1487433915.58,53970,12.44,73304.5,-11.47,-14.79,-14.79,0,*6B
1487433916.82,53971,12.44,73302.5,-11.47,-14.89,-14.89,0,*6A
1487433918.06,53972,12.5,73304.5,-11.45,-14.89,-14.79,0,*64
1487433919.33,53973,12.44,73300.8,-11.47,-14.89,-14.79,0,*67
1487433920.57,53974,12.5,73304.0,-11.47,-14.89,-14.89,0,*6F
1487433921.84,53975,12.44,73300.3,-11.47,-14.89,-14.79,0,*61
1487433923.1,53976,12.44,73306.3,-11.47,-14.89,-14.79,0,*62
1487433924.39,53977,12.44,73306.0,-11.47,-14.79,-14.79,0,*6C
1487433925.63,53978,12.44,73304.0,-11.47,-14.89,-14.89,0,*63
1487433926.88,53979,12.44,73304.3,-11.47,-14.89,-14.89,0,*62
1487433928.14,53980,12.5,73306.5,-11.47,-14.89,-14.79,0,*6B
1487433929.41,53981,12.44,73306.0,-11.47,-14.89,-14.79,0,*6A
1487433930.67,53982,12.44,73304.0,-11.47,-14.89,-14.75,0,*65
1487433931.96,53983,12.44,73302.3,-11.47,-14.79,-14.75,0,*6B
1487433933.22,53984,12.5,73306.0,-11.47,-14.89,-14.79,0,*6F
1487433934.47,53985,12.44,73306.0,-11.47,-14.89,-14.89,0,*61
1487433935.71,53986,12.44,73304.8,-11.47,-14.89,-14.89,0,*62
1487433936.98,53987,12.44,73304.3,-11.47,-14.89,-14.79,0,*6C
1487433938.24,53988,12.44,73302.8,-11.47,-14.93,-14.89,0,*67
1487433939.5,53989,12.44,73302.8,-11.47,-14.93,-14.89,0,*66
1487433940.76,53990,12.5,73306.3,-11.47,-15.01,-14.89,0,*64
1487433942.03,53991,12.44,73300.0,-11.47,-14.93,-14.89,0,*6F
1487433943.29,53992,12.44,73304.0,-11.47,-14.89,-14.79,0,*68
1487433944.53,53993,12.44,73302.3,-11.49,-14.89,-14.79,0,*67
1487433945.77,53994,12.44,73304.0,-11.49,-14.89,-14.75,0,*6C
1487433947.03,53995,12.44,73304.3,-11.49,-14.79,-14.75,0,*62
1487433948.29,53996,12.44,73306.0,-11.49,-14.79,-14.75,0,*61
1487433949.52,53997,12.44,73306.0,-11.49,-14.75,-14.65,0,*6D
1487433950.78,53998,12.44,73304.0,-11.49,-14.75,-14.75,0,*63
1487433952.02,53999,12.44,73304.8,-11.49,-14.75,-14.65,0,*63
1487433953.28,54000,12.5,73304.8,-11.47,-14.89,-14.75,0,*61
1487433954.57,54001,12.44,73300.3,-11.47,-14.79,-14.79,0,*63
1487433955.87,54002,12.44,73302.0,-11.47,-14.79,-14.79,0,*60
1487433957.13,54003,12.44,73300.8,-11.45,-14.83,-14.75,0,*6A
1487433958.39,54004,12.44,73302.0,-11.45,-14.75,-14.75,0,*64
1487433959.68,54005,12.44,73300.8,-11.47,-14.79,-14.75,0,*6B
1487433960.94,54006,12.44,73300.3,-11.47,-14.79,-14.61,0,*6D
1487433962.21,54007,12.44,73300.0,-11.47,-14.79,-14.65,0,*68
1487433963.47,54008,12.44,73300.8,-11.47,-14.75,-14.65,0,*6B
1487433964.74,54009,12.44,73302.3,-11.47,-14.75,-14.65,0,*6A
1487433966.0,54010,12.44,73300.3,-11.47,-14.79,-14.65,0,*6E
1487433967.27,54011,12.44,73302.3,-11.47,-14.89,-14.75,0,*61
1487433968.47,54012,12.44,73300.8,-11.45,-14.69,-14.61,0,*6B
1487433969.76,54013,12.5,73306.0,-11.47,-14.79,-14.75,0,*6C
1487433971.03,54014,12.44,73304.0,-11.47,-14.79,-14.65,0,*6A
1487433972.26,54015,12.44,73306.3,-11.45,-14.75,-14.69,0,*69
1487433973.52,54016,12.44,73302.3,-11.47,-14.75,-14.65,0,*64
1487433974.79,54017,12.44,73300.5,-11.47,-14.65,-14.51,0,*63
1487433976.05,54018,12.44,73306.3,-11.47,-14.75,-14.61,0,*6E
1487433977.31,54019,12.44,73306.5,-11.47,-14.75,-14.61,0,*6F
1487433978.58,54020,12.44,73304.0,-11.47,-14.75,-14.65,0,*61
1487433979.86,54021,12.44,73302.8,-11.47,-14.75,-14.75,0,*61
1487433981.1,54022,12.44,73300.5,-11.47,-14.65,-14.65,0,*62
1487433982.34,54023,12.44,73302.3,-11.47,-14.65,-14.61,0,*67
1487433983.58,54024,12.44,73300.3,-11.47,-14.65,-14.65,0,*64
1487433984.87,54025,12.44,73302.8,-11.47,-14.79,-14.75,0,*69
1487433986.13,54026,12.44,73300.8,-11.45,-14.83,-14.75,0,*6D
1487433987.4,54027,12.44,73304.0,-11.47,-14.89,-14.79,0,*68
1487433988.64,54028,12.44,73302.0,-11.47,-14.89,-14.89,0,*68
1487433989.91,54029,12.44,73300.3,-11.45,-14.83,-14.83,0,*6B
1487433991.18,54030,12.5,73306.0,-11.47,-14.89,-14.79,0,*6E
1487433992.44,54031,12.44,73304.3,-11.47,-14.89,-14.79,0,*6F
1487433993.71,54032,12.44,73302.5,-11.47,-14.79,-14.89,0,*6C
1487433994.97,54033,12.44,73304.3,-11.47,-14.89,-14.79,0,*6D
1487433996.24,54034,12.44,73302.0,-11.47,-14.89,-14.79,0,*6A
1487433997.53,54035,12.44,73302.3,-11.47,-14.79,-14.79,0,*64
1487433998.8,54036,12.5,73306.5,-11.47,-14.79,-14.89,0,*68
1487434000.06,54037,12.44,73302.8,-11.47,-14.89,-14.79,0,*69
1487434001.35,54038,12.44,73302.5,-11.47,-14.79,-14.75,0,*65
1487434002.59,54039,12.44,73302.0,-11.45,-14.83,-14.69,0,*6E
1487434003.83,54040,12.44,73300.5,-11.47,-14.89,-14.65,0,*64
1487434005.06,54041,12.44,73302.3,-11.45,-14.69,-14.75,0,*68
1487434006.32,54042,12.44,73302.8,-11.47,-14.89,-14.75,0,*67
1487434007.59,54043,12.44,73300.8,-11.47,-14.79,-14.89,0,*6A
1487434008.83,54044,12.44,73298.0,-11.47,-14.89,-14.89,0,*62
1487434010.1,54045,12.44,73304.8,-11.47,-14.89,-14.79,0,*6C
1487434011.37,54046,12.44,73302.3,-11.47,-14.89,-14.79,0,*6F
1487434012.61,54047,12.44,73304.3,-11.47,-14.89,-14.89,0,*61
1487434013.82,54048,12.44,73302.5,-11.49,-14.89,-14.89,0,*60
1487434015.04,54049,12.44,73304.0,-11.49,-14.89,-14.89,0,*61
1487434016.33,54050,12.44,73300.3,-11.47,-14.79,-14.79,0,*67
1487434017.6,54051,12.44,73302.5,-11.47,-14.75,-14.65,0,*67
1487434018.84,54052,12.44,73300.5,-11.47,-14.65,-14.65,0,*65
1487434020.07,54053,12.44,73306.0,-11.49,-14.75,-14.65,0,*6B
1487434021.31,54054,12.44,73306.0,-11.47,-14.65,-14.65,0,*63
1487434022.53,54055,12.44,73300.5,-11.49,-14.65,-14.65,0,*6C
1487434023.79,54056,12.44,73306.0,-11.49,-14.75,-14.75,0,*6F
1487434025.04,54057,12.44,73304.5,-11.49,-14.75,-14.75,0,*6E
1487434026.3,54058,12.44,73302.8,-11.49,-14.79,-14.75,0,*6D
1487434027.57,54059,12.44,73302.8,-11.47,-14.75,-14.65,0,*6F
1487434028.81,54060,12.44,73304.8,-11.47,-14.65,-14.65,0,*64
1487434030.09,54061,12.44,73302.5,-11.47,-14.75,-14.75,0,*65
1487434031.38,54062,12.44,73304.8,-11.47,-14.79,-14.75,0,*6A
1487434032.67,54063,12.44,73304.8,-11.47,-14.75,-14.75,0,*67
1487434033.93,54064,12.44,73300.3,-11.49,-14.79,-14.79,0,*6E
1487434035.22,54065,12.44,73306.5,-11.47,-14.75,-14.75,0,*61
1487434036.5,54066,12.44,73304.8,-11.47,-14.75,-14.79,0,*6E
1487434037.74,54067,12.44,73304.5,-11.49,-14.65,-14.79,0,*60
1487434039.0,54068,12.44,73300.0,-11.49,-14.75,-14.75,0,*62
1487434040.26,54069,12.44,73304.0,-11.49,-14.75,-14.75,0,*63
1487434041.52,54070,12.44,73302.5,-11.49,-14.75,-14.75,0,*6B
1487434042.75,54071,12.44,73302.0,-11.49,-14.65,-14.75,0,*6B
1487434044.04,54072,12.44,73302.8,-11.51,-14.79,-14.79,0,*60
1487434045.28,54073,12.44,73304.8,-11.49,-14.79,-14.65,0,*65
1487434046.49,54074,12.44,73300.5,-11.49,-14.61,-14.65,0,*6B
1487434047.73,54075,12.44,73302.0,-11.49,-14.65,-14.79,0,*63
1487434048.99,54076,12.44,73302.8,-11.49,-14.75,-14.79,0,*61
1487434050.25,54077,12.44,73298.8,-11.49,-14.75,-14.75,0,*6C
1487434051.54,54078,12.44,73306.8,-11.51,-14.79,-14.79,0,*6A
1487434052.8,54079,12.44,73302.5,-11.49,-14.75,-14.79,0,*6E
1487434054.03,54080,12.44,73302.3,-11.49,-14.65,-14.93,0,*6D
1487434055.27,54081,12.44,73300.5,-11.49,-14.79,-14.89,0,*6A
1487434056.51,54082,12.44,73302.8,-11.47,-14.65,-14.65,0,*68
1487434057.77,54083,12.44,73304.0,-11.49,-14.75,-14.75,0,*67
1487434059.03,54084,12.44,73302.3,-11.49,-14.75,-14.75,0,*60
1487434060.27,54085,12.44,73300.5,-11.49,-14.65,-14.79,0,*6C
1487434061.5,54086,12.44,73298.5,-11.49,-14.65,-14.75,0,*63
1487434062.79,54087,12.44,73300.5,-11.51,-14.79,-14.79,0,*6A
1487434064.02,54088,12.44,73302.0,-11.49,-14.75,-14.65,0,*6D
1487434065.26,54089,12.44,73300.3,-11.49,-14.69,-14.79,0,*6C
1487434066.52,54090,12.44,73304.0,-11.49,-14.75,-14.75,0,*65
1487434067.75,54091,12.44,73296.8,-11.49,-14.65,-14.79,0,*69
1487434069.01,54092,12.44,73300.0,-11.51,-14.69,-14.79,0,*6F
1487434070.26,54093,12.44,73298.5,-11.51,-14.69,-14.83,0,*6B
1487434071.5,54094,12.44,73302.3,-11.49,-14.65,-14.79,0,*6C
1487434072.73,54095,12.44,73300.3,-11.49,-14.65,-14.75,0,*61
1487434073.95,54096,12.44,73304.5,-11.49,-14.61,-14.65,0,*67
1487434075.21,54097,12.44,73300.3,-11.51,-14.65,-14.83,0,*63
1487434076.49,54098,12.44,73302.3,-11.51,-14.79,-14.93,0,*60
1487434077.73,54099,12.44,73304.3,-11.49,-14.65,-14.79,0,*61
1487434078.97,54100,12.44,73304.8,-11.49,-14.65,-14.79,0,*60
1487434080.24,54101,12.44,73300.8,-11.49,-14.51,-14.79,0,*66
1487434081.5,54102,12.44,73302.0,-11.49,-14.51,-14.75,0,*69
1487434082.8,54103,12.44,73304.8,-11.51,-14.55,-14.83,0,*6C
1487434084.03,54104,12.44,73304.3,-11.49,-14.65,-14.79,0,*64
1487434085.32,54105,12.44,73300.5,-11.51,-14.79,-14.97,0,*61
1487434086.58,54106,12.44,73300.8,-11.51,-14.65,-14.97,0,*6F
1487434087.88,54107,12.44,73300.0,-11.51,-14.55,-14.79,0,*6D
1487434089.17,54108,12.44,73304.5,-11.51,-14.55,-14.79,0,*62
1487434090.41,54109,12.44,73304.8,-11.49,-14.37,-14.75,0,*62
1487434091.7,54110,12.44,73300.8,-11.51,-14.51,-14.83,0,*6A
1487434092.99,54111,12.44,73302.3,-11.51,-14.43,-14.79,0,*6D
1487434094.24,54112,12.44,73306.5,-11.49,-14.47,-14.65,0,*6E
1487434095.54,54113,12.44,73308.5,-11.51,-14.55,-14.83,0,*6D
1487434096.8,54114,12.44,73308.5,-11.51,-14.65,-14.83,0,*69
1487434098.01,54115,12.44,73306.3,-11.49,-14.65,-14.89,0,*6B